Miscellaneous Local Product
Issued by NWS North Platte, NE

Home | Current Version | Previous Version | Text Only | Print | Product List | Glossary On
Versions: 1 2 3 4 5 6 7 8 9 10 11 12 13 14 15 16 17 18 19 20 21 22 23 24 25 26 27 28 29 30 31 32 33 34 35 36 37 38 39 40 41 42 43 44 45 46 47 48 49 50
000
AXUS43 KLBF 271410
MISLBF


WESTERN AND NORTH CENTRAL NEBRASKA HOURLY WEATHER ROUNDUP
NATIONAL WEATHER SERVICE NORTH PLATTE NE
800 AM CST THU NOV 27 2014

***STATIONS NOT REPORTING VARIABLES SUCH AS SKY/WEATHER OR
PRESSURE ARE PROVIDED BY THE NEBRASKA DEPARTMENT OF
ROADS...RAWS...AND APRS NETWORKS...AND ARE NOT UNDER
NATIONAL WEATHER SERVICE QUALITY CONTROL***

...OBSERVATIONS IN AND NEAR THE EASTERN PANHANDLE OF NEBRASKA...

CITY           SKY/WX    TMP DP  RH WIND       PRES   REMARKS
PINE RIDGE     PTCLDY    25  22  88 S8        30.13F WCI  16
CHADRON        PTCLDY   N/A N/A N/A CALM      30.12F
ALLIANCE       PTCLDY    15  13  91 S7        30.13F WCI   5
SIDNEY         PTCLDY    27  23  85 SW9       30.16F WCI  18
WHITECLAY        N/A     24  20  82 SE7         N/A  WCI  16
CRESCENT LAKE    N/A     18  16  90 S5          N/A  WCI  11
LISCO            N/A     17  12  80 CALM        N/A
BIG SPRINGS      N/A     14  13  95 CALM        N/A
$$

...OBSERVATIONS IN NORTH CENTRAL NEBRASKA...

CITY           SKY/WX    TMP DP  RH WIND       PRES   REMARKS
VALENTINE      CLOUDY    22  16  78 E13       30.25F WCI  10
THEDFORD       PTCLDY    24  19  83 SE7       30.25F WCI  16
AINSWORTH      CLOUDY    20  15  80 SE12      30.29R WCI   8
O`NEILL        CLOUDY    17  10  72 SE8       30.39F WCI   7
ORD            CLOUDY    18  11  74 SE9       30.39F WCI   7
BROKEN BOW     CLEAR     18  13  80 E8        30.34S WCI   8
BROWNLEE         N/A     24  20  85 SE16        N/A  WCI  10
SPRINGVIEW       N/A     18  11  73 E8          N/A  WCI   8
BREWSTER         N/A     24  20  85 S10         N/A  WCI  13
SARGENT          N/A     19  15  85 SE3         N/A
COMSTOCK         N/A     23  19  87 SE7         N/A  WCI  14
CHAMBERS         N/A     17   6  63 SE5         N/A  WCI  10
$$

...OBSERVATIONS IN SOUTHWEST NEBRASKA AND FAR NORTHEAST COLORADO...

CITY           SKY/WX    TMP DP  RH WIND       PRES   REMARKS
WRAY           FAIR      20  19  93 W8        30.22F WCI  11
HOLYOKE        FAIR      25  21  86 W8        30.19F WCI  16
IMPERIAL       CLEAR     19  15  84 S6        30.22F WCI  11
OGALLALA       PTCLDY   N/A N/A N/A CALM      30.22S
NORTH PLATTE   PTCLDY    18  14  84 E8        30.27F WCI   8
MCCOOK         CLEAR     17  14  88 SE7       30.31F WCI   8
LEXINGTON      PTCLDY    22  18  84 SE9       30.35R WCI  11
PAXTON           N/A     20  18  92 CALM        N/A
BRADY            N/A     18  14  83 N3          N/A
GOTHENBURG       N/A     18  14  84 E6          N/A  WCI  10
CALLAWAY         N/A     17  14  88 S12         N/A  WCI   4
$$

...NORTH PLATTE AREA...

CITY           SKY/WX    TMP DP  RH WIND       PRES   REMARKS
AIRPORT        PTCLDY    18  14  84 E8        30.27F WCI   8
DOWNTOWN         N/A     19  15  84 SE3         N/A
$$

...SOME WEATHER OBSERVATIONS FROM AROUND THE REGION...

CITY           SKY/WX    TMP DP  RH WIND       PRES   REMARKS
DENVER         MOCLDY    42  20  41 S13       30.20F
LARAMIE        MOCLDY    37  18  46 SW20G29   30.22S WCI  27
CHEYENNE       PTCLDY    45  19  35 W26G35    30.16S
SCOTTSBLUFF    MOCLDY    12   9  87 CALM      30.14F
RAPID CITY     CLOUDY    19  17  92 SE12      30.11F WCI   7
PIERRE         CLOUDY    12   8  84 SE14      30.32F WCI  -3
WINNER         CLOUDY    18   9  68 SE16      30.31F WCI   3
SIOUX FALLS    MOCLDY    -5 -11  75 NE6       30.47S WCI -18
OMAHA          MOCLDY    16   8  71 NE5       30.54R WCI   9
GRAND ISLAND   MOCLDY    17  12  80 E5        30.46R WCI  10
KANSAS CITY    CLOUDY    24  19  81 N5        30.51R WCI  18
WICHITA        PTCLDY    25  18  74 NE5       30.50S WCI  19
HAYS           CLEAR     21  10  63 E6        30.43R WCI  14
LIBERAL        PTCLDY    25  16  68 S7        30.42S WCI  17
GOODLAND       CLEAR     24  17  74 S14       30.26F WCI  12
$$



USA.gov is the U.S. government's official web portal to all federal, state and local government web resources and services.